DMSP 5D-2 F13 DEB, 40413

Orbit data source: Space-Track

DMSP 5D-2 F13 DEB, 40413 is space debris in SSO originally from a launch on Fri, 24 Mar 1995 UTC launched from the Air Force Western Test Range (AFWTR). Debris objects in space refer to the collection of defunct objects orbiting the Earth. Examples of debris include non-operational satellites, rocket bodies, and fragments generated from explosions, collisions, or faulty payload assembly.

Loading next visibility...
Identifier
40413, 1995-015AA
Orbit
SSO
Country
Flag of USUS
Related business
Manufacturer
Unknown
Mission
Spacecraft
Bus & Motor
Unknown
Mass
Unknown
Launch date (UTC)
1995-03-24 (31 years ago)
Launch vehicle
Unknown
Launch site
Air Force Western Test Range (AFWTR)
Object type
Payload
Rocket body
Debris
Shape & HBR
Unknown shape, 0.1 m
Radar Cross Section
Small (<0.1 m²)

Expand to show TLE details & history
Last TLE update: 20 hours ago

TLE from 20 hours ago
0 DMSP 5D-2 F13 DEB
1 40413U 95015AA  26253.57505532  .00001339  00000-0  50179-3 0  9993
2 40413  98.6136 282.0263 0013380  39.8646 320.3519 14.33306682599586
Epoch: 2026-09-10T13:48Z
TLE epoch observation values (Epoch: 2026-09-10T13:48:04.779Z)
Latitude
0.00003°
Longitude
85.39559°
Altitude
776.263 km
Speed
7.47 km/s
True Right ascension
18h 48m 06s
True Declination
0° 00' 00"
Sunlit
Object was in daylight at epoch
Visualization orbit readout
Latitude
Unknown
Longitude
Unknown
Altitude
Unknown
Speed
Unknown
Apparent Right ascension
Unknown
Apparent Declination
Unknown
Sunlit
N/A
Visualization observer readout
Local Sidereal Time
01:48:40
Azimuth
Unknown
Elevation
Unknown
Doppler factor
Unknown
Orbital elements
Apogee altitude
787.41 km
Perigee altitude
768.261 km
Semi-major axis
7,155.972 km
Eccentricity
0.00134
Inclination
98.6136°
RAAN
282.0263°
Arg. of periapsis
39.8646°
True anomaly
320.25394°
Mean anomaly
320.3519°
Eccentric anomaly
320.30293°
Mean motion
3.58542 °/min
Orbital period
100.41 mins
BSTAR
0.00050179
Loading maneuver chart data...
Computing Atmospheric mass density...

Documentation

Showing up to 5 results
|